Regional Weather Roundup
Issued by NWS

Home | Current Version | Previous Version | Text Only | Print | Product List | Glossary Off
Versions: 1 2 3 4 5 6 7 8 9 10 11 12 13 14 15 16 17 18 19 20 21 22 23 24 25 26 27 28 29 30 31 32 33 34 35 36 37 38 39 40 41 42 43 44 45 46 47 48 49 50

000
ASUS43 KOAX 292302
RWRNE

WEATHER ROUNDUP FOR NEBRASKA
NATIONAL WEATHER SERVICE OMAHA NE
600 PM CDT FRI MAY 29 2015

NOTES: SATELLITE DATA IS BEING USED TO AUGMENT CLOUD COVER ABOVE
       12000 FEET.
       "FAIR" INDICATES FEW OR NO CLOUDS BELOW 12,000 FEET WITH NO
       SIGNIFICANT WEATHER AND/OR OBSTRUCTIONS TO VISIBILITY.

  * THESE STATIONS DO NOT REPORT WEATHER SUCH AS RAIN...SNOW OR FOG.

NEZ001>004-019>022-054>056-300000-
NEBRASKA PANHANDLE

CITY           SKY/WX    TMP DP  RH WIND       PRES   REMARKS
SCOTTSBLUFF    LGT RAIN  53  49  86 N15G23    30.27R
ALLIANCE       LGT RAIN  47  45  93 N17       30.26R
CHADRON        CLOUDY    48  45  89 NE13      30.30R
KIMBALL          N/A    N/A N/A N/A MISG        N/A
SIDNEY         CLOUDY    51  46  83 N18       30.23S
$$

NEZ057>060-069>072-079>082-300000-
SOUTHWEST NEBRASKA

CITY           SKY/WX    TMP DP  RH WIND       PRES   REMARKS
NORTH PLATTE   LGT RAIN  53  50  89 N18G25    30.16F
IMPERIAL       PTSUNNY   59  50  72 N24G32    30.15R
LEXINGTON      RAIN      58  54  86 N20G28    30.13R
MCCOOK         PTSUNNY   63  53  70 N18G30    30.09R
$$

NEZ005>010-023>029-035>040-094-300000-
NORTH CENTRAL NEBRASKA

CITY           SKY/WX    TMP DP  RH WIND       PRES   REMARKS
VALENTINE      CLOUDY    48  45  89 N17G25    30.23R
AINSWORTH      LGT RAIN  49  48  97 N23       30.21R
BROKEN BOW     CLOUDY    57  50  77 N26G33    30.12R
ORD            CLOUDY    55  50  83 N24G30    30.09R
$$

NEZ041-046>049-061>064-073>077-083>087-300000-
SOUTH CENTRAL NEBRASKA

CITY           SKY/WX    TMP DP  RH WIND       PRES   REMARKS
GRAND ISLAND   MOSUNNY   66  53  63 N26G33    30.02R
HASTINGS       MOSUNNY   69  56  62 N25G32    29.99R
KEARNEY *      PTSUNNY   64  52  63 N30G37    30.04R
$$

NEZ011>018-030>034-042>045-300000-
NORTHEAST NEBRASKA

CITY           SKY/WX    TMP DP  RH WIND       PRES   REMARKS
NORFOLK        CLOUDY    60  54  80 N21G31    30.00R
BLAIR          CLOUDY    77  59  53 SW7       29.88F
COLUMBUS *     PTSUNNY   66  55  68 N24G32    29.98R
FREMONT        CLOUDY    77  60  55 NW25      29.90R
TEKAMAH        CLOUDY    74  64  71 NW15G25   29.89R THUNDER
$$

NEZ050>053-065>068-078-088>093-300000-
SOUTHEAST NEBRASKA

CITY           SKY/WX    TMP DP  RH WIND       PRES   REMARKS
LINCOLN        PTSUNNY   79  59  50 SW6       29.90F
OMAHA EPPLEY   CLOUDY    78  60  53 S10       29.87F
FALLS CITY     CLOUDY    75  65  70 SW8       29.91F
NEBRASKA CITY  PTSUNNY   75  56  52 SW7       29.91F
PLATTSMOUTH    CLOUDY    76  59  56 S9        29.90F
$$

NEZ044-045-051>053-067-300000-
OMAHA AREA

CITY           SKY/WX    TMP DP  RH WIND       PRES   REMARKS
OMAHA EPPLEY   CLOUDY    78  60  53 S10       29.87F
BLAIR          CLOUDY    77  59  53 SW7       29.88F
FREMONT        CLOUDY    77  60  55 NW25      29.90R
OFFUTT AFB     CLOUDY    78  61  56 SW9       29.88F
PLATTSMOUTH    CLOUDY    76  59  56 S9        29.90F
$$


USA.gov is the U.S. government's official web portal to all federal, state and local government web resources and services.